#timestamp,LO_Frequency,Hit,StdDev 
1537786815.6,286046980.6,Y
1537786835.5,286046993.9,P
1537786855.3,286046992.6,N
1537786875.2,286046992.0,N
1537786895.9,286046989.1,Y
1537786915.7,286046995.4,P
1537786935.6,286046993.6,N
1537786955.4,286046989.0,P
1537786975.3,286046989.7,Y
1537786995.1,286046993.7,P
1537786996.0,286046993.7,P
1537787015.8,286046993.5,P
1537787035.7,286046996.1,Y
1537787055.5,286047000.9,P
1537787075.3,286046996.9,N
1537787095.2,286046996.5,N
1537787115.0,286046994.4,N
1537787115.9,286046994.4,N
1537787135.8,286046990.7,Y
1537787155.6,286046996.4,P
1537787175.4,286046994.6,P
1537787195.3,286046996.3,P
1537787215.1,286046996.4,Y
1537787235.9,286046995.8,P
1537787255.7,286046994.2,P
1537787275.5,286046994.8,P
1537787295.4,286046990.7,Y
1537787315.2,286046996.1,P
1537787335.1,286046993.8,P
1537787336.0,286046993.8,P
1537787355.8,286046994.0,Y
1537787375.6,286046998.4,P
1537787395.5,286046999.2,N
1537787415.3,286047000.9,N
1537787435.1,286046997.0,N
1537787455.9,286046991.8,Y
1537787475.7,286046991.7,P
1537787495.6,286046989.2,P
1537787515.4,286046989.9,N
1537787535.2,286046989.3,Y
1537787555.1,286046995.9,P
1537787556.0,286046995.9,N
1537787575.8,286046994.4,P
1537787595.7,286046994.6,Y
1537787615.5,286046996.5,P
1537787635.3,286046997.8,N
1537787655.2,286046999.2,N
1537787675.0,286046996.9,N
1537787675.9,286046996.9,N
1537787695.7,286046995.9,N
1537787715.6,286046990.3,Y
1537787735.4,286046992.1,P
1537787755.3,286046994.8,N
1537787775.1,286046993.2,P
1537787795.8,286046989.2,Y
1537787815.7,286046994.8,P
1537787835.5,286046996.4,P
1537787855.4,286046995.0,P
1537787875.2,286046996.2,Y
1537787895.0,286047000.0,P
1537787895.9,286047000.0,N
1537787915.8,286047002.6,N
1537787935.6,286047002.1,N
1537787955.4,286047002.3,N
1537787975.3,286047005.1,N
1537787995.1,286047007.4,N
1537788015.9,286047008.7,N
1537788035.7,286047010.4,N
1537788055.5,286047008.1,N
1537788075.4,286047006.7,N
1537788095.2,286047007.9,N
1537788115.0,286047003.6,N
1537788115.9,286047003.6,N
1537788135.8,286047002.3,N
1537788155.6,286047000.3,N
1537788175.5,286047005.8,N
1537788195.3,286047007.6,N
1537788215.1,286047007.4,N
1537788235.9,286047006.5,N
1537788255.7,286047006.1,N
1537788275.5,286047008.7,N
1537788295.4,286047009.3,N
1537788315.2,286047013.8,Y
1537788335.1,286047009.8,P
1537788336.0,286047009.8,P
1537788355.8,286047014.6,P
1537788375.6,286047016.9,Y
1537788395.5,286047006.3,P
1537788415.3,286047011.6,P
1537788435.1,286047008.2,P
1537788455.9,286047008.4,Y
1537788475.7,286046998.3,P
1537788495.6,286046996.6,N
1537788515.4,286046997.6,N
1537788535.2,286046996.2,N
1537788555.1,286046998.1,N
1537788556.0,286046998.1,N
1537788575.8,286047001.1,N
1537788595.7,286047004.3,N
1537788615.5,286046999.9,N
1537788635.3,286047000.1,N
1537788655.2,286047003.2,N
1537788675.9,286047004.8,N
1537788695.7,286047006.1,N
1537788715.6,286047010.3,N
1537788735.4,286047014.0,Y
1537788755.3,286047013.3,P
1537788775.1,286047015.7,N
1537788776.0,286047015.7,N
1537788795.8,286047017.7,Y
1537788815.7,286047008.0,P
1537788835.5,286047006.3,P
1537788855.3,286047009.6,P
1537788875.2,286047013.9,Y
1537788895.0,286047003.1,P
1537788895.9,286047003.1,N
1537788915.8,286047005.2,N
1537788935.6,286047003.0,N
1537788955.4,286047003.7,N
1537788975.3,286047003.5,N
1537788995.1,286047005.8,N
1537789015.9,286047006.9,Y
1537789035.7,286047002.8,P
1537789055.5,286047004.0,P
1537789075.4,286047005.0,P
1537789095.2,286047006.3,Y
1537789115.0,286047005.6,P
1537789115.9,286047005.6,P
1537789135.8,286047005.6,P
1537789155.6,286047006.0,Y
1537789175.5,286046997.3,P
1537789195.3,286046995.9,N
1537789215.1,286046993.6,N
1537789235.9,286046990.8,N
1537789255.7,286046988.5,N
1537789275.5,286046987.5,N
1537789295.4,286046986.2,N
1537789315.2,286046983.9,N
1537789335.1,286046978.9,Y
1537789336.0,286046978.9,P
1537789355.8,286046987.8,N
1537789375.6,286046985.7,N
1537789395.5,286046988.2,N
1537789415.3,286046991.5,N
1537789435.1,286046990.1,N
1537789455.9,286046992.6,N
1537789475.7,286046991.2,N
1537789495.6,286046990.3,N
1537789515.4,286046991.8,N
1537789535.2,286046995.5,N
1537789555.1,286046993.6,N
1537789556.0,286046993.6,N
1537789575.8,286046995.9,N
1537789595.7,286046994.9,N
1537789615.5,286046998.9,N
1537789635.3,286046997.9,N
1537789655.2,286046994.9,N
1537789675.9,286046997.3,N
1537789695.7,286047002.6,N
1537789715.6,286047003.4,N
1537789735.4,286047005.5,N
1537789755.2,286047006.1,N
1537789775.1,286047008.9,N
1537789776.0,286047008.9,N
1537789795.8,286047009.9,N
1537789815.7,286047009.3,N
1537789835.5,286047013.3,N
1537789855.3,286047014.2,N
1537789875.2,286047016.4,N
1537789895.0,286047016.5,N
1537789895.9,286047016.5,N
1537789915.8,286047015.1,N
1537789935.6,286047013.2,N
1537789955.4,286047011.3,N
1537789975.3,286047009.7,N
1537789995.1,286047006.8,N
1537790015.8,286047001.8,N
1537790035.7,286047001.2,N
1537790055.5,286046999.4,N
1537790075.4,286046995.6,N
1537790095.2,286046995.9,N
1537790115.0,286046993.0,N
1537790115.9,286046993.0,N
1537790135.8,286046989.7,N
1537790155.6,286046989.7,N
1537790175.4,286046991.3,N
1537790195.3,286046991.8,N
1537790215.1,286046994.6,N
1537790235.9,286046992.8,N
1537790255.7,286046989.1,N
1537790275.5,286046991.1,N
1537790295.4,286046991.2,N
1537790315.2,286046988.2,N
1537790335.0,286046985.5,N
1537790335.9,286046985.5,N
1537790355.8,286046986.3,N
1537790375.6,286046983.0,N
1537790395.5,286046981.7,N
